SCP
-0 -0 -0 -0 -0 -0 -0 -0 -0 0 0 0 0 0 0 0 0 0 -0 0 0 0 0 0 0 0 0 0 0 -0 -0 -0 0 0 0 0 0 0 0 0 0 0 0 0 0
-0 -0 -0 -0 -0 -0 -0 -0 -0 0 0 0 0 0 0 0 0 -0 0 0 0 0 0 0 0 0 0 0 -0 0 -0 0 0 0 -0 0 0 0 0 0 0 0 0 0 0
-0 -0 -0 -0 -0 -0 -0 -0 0 0 0 0 0 0 0 0 0 0 -0 0 0 0 0 0 0 0 0 0 0 0 0 0 0 0 0 0 0 0 -0 0 0 0 0 0 0
-0 -0 -0 -0 -0 -0 -0 -0 0 0 0 0 0 0 0 0 0 0 0 0 0 0 0 0 0 0 0 0 0 0 0 0 0 0 0 0 0 -0 -0 0 0 0 0 0 0
-0 -0 -0 -0 -0 -0 -0 -0 0 0 0 0 0 0 0 0 0 0 0 0 0 0 0 0 0 0 0 0 0 0 0 0 -0 -0 -0 -0 -0 -0 0 0 0 0 0 0 0
-0 -0 -0 -0 -0 -0 -0 -0 0 0 0 0 0 0 0 0 0 0 0 0 0 0 0 0 0 0 0 0 0 0 0 0 0 0 0 0 -0 0 -0 0 0 0 0 0 0
-0 -0 -0 -0 -0 -0 -0 -0 0 0 0 0 0 0 0 0 0 0 0 0 0 0 0 0 0 0 0 0 0 0 0 0 0 0 0 0 0 -0 -0 -0 0 -0 -0 0 0
-0 -0 -0 -0 -0 -0 -0 0 0 0 0 0 0 0 0 0 0 0 0 0 0 0 0 0 0 0 0 0 0 0 0 0 0 0 0 0 -0 0 0 0 -0 -0 0 0 -0
-0 -0 -0 -0 -0 -0 -0 0 0 0 0 0 0 0 0 0 0 0 0 0 0 0 0 0 0 0 0 0 0 0 0 0 0 0 0 -0 -0 -0 -0 -0 0 0 0 0 0
-0 -0 -0 -0 -0 -0 -0 0 0 0 0 0 0 0 0 0 0 0 0 0 0 0 0 0 0 0 0 0 0 0 0 0 0 0 0 -0 -0 0 -0 -0 -0 -0 -0 0 0
-0 -0 -0 -0 -0 -0 0 0 0 0 0 0 0 0 0 0 0 0 0 0 0 0 0 0 0 0 0 0 0 0 0 0 0 0 0 0 0 0 0 0 -0 -0 -0 -0 -0
-0 -0 -0 -0 -0 0 0 0 0 0 0 0 0 0 0 0 0 0 0 0 0 0 0 0 0 0 0 0 0 0 0 0 0 0 0 0 0 0 0 0 0 0 0 -0 -0
-0 -0 -0 -0 0 0 0 0 0 0 0 0 0 0 0 0 0 0 0 0 0 0 0 0 0 0 0 0 0 0 0 0 0 0 0 0 0 0 0 0 0 -0 0 -0 -0
0 0 0 0 0 0 0 0 0 0 0 0 0 0 0 0 0 0 0 0 0 0 0 0 0 0 0 0 0 0 0 0 0 0 0 0 0 0 0 0 0 -0 -0 -0 -0
0 0 0 0 0 0 0 0 0 0 0 0 0 0 0 0 0 0 0 0 0 0 0 0 0 0 0 0 0 0 0 0 0 0 0 0 0 0 0 0 -0 -0 -0 -0 -0
0 0 0 0 0 0 0 0 0 0 0 0 0 0 0 0 0 0 0 0 0 0 0 0 0 0 0 0 0 0 0 0 0 0 0 0 0 0 0 0 0 0 -0 -0 -0
0 0 0 0 0 0 0 0 0 0 0 0 0 0 0 0 0 0 0 0 0 0 0 0 0 0 0 0 0 0 0 -0 0 0 0 0 0 0 0 0 0 0 0 0 0
0 0 0 0 0 0 0 0 0 0 0 0 0 0 0 0 0 0 0 0 0 0 0 0 0 0 0 0 0 0 0 0 0 0 0 0 0 0 0 0 0 0 0 0 0
0 0 0 0 0 0 0 0 0 0 0 0 0 0 0 0 0 0 0 0 0 0 0 0 0 0 0 0 0 0 0 0 0 0 0 0 0 0 0 0 0 0 0 0 0
0 0 0 0 0 0 0 0 0 0 0 0 0 0 0 0 0 0 0 0 0 0 0 0 0 0 0 0 0 0 0 0 0 0 0 0 0 0 0 0 0 0 0 0 0
0 0 0 0 0 0 0 0 0 0 0 0 0 0 0 0 0 0 0 0 0 0 0 0 0 0 0 0 0 0 0 0 0 0 0 0 0 0 0 0 0 0 0 0 0
0 0 0 0 0 0 0 0 0 0 0 0 0 0 0 0 0 0 0 0 0 0 0 0 0 0 0 0 0 0 0 0 0 0 0 0 0 0 0 0 0 0 0 0 0
0 0 0 0 0 0 0 0 0 0 0 0 0 0 0 0 0 0 0 0 0 0 0 0 0 0 0 0 0 0 0 0 0 0 0 0 0 0 0 0 0 0 0 0 0
0 0 0 0 0 0 0 0 0 0 0 0 0 0 0 0 0 0 0 0 0 0 0 0 0 0 0 0 0 0 0 0 0 0 0 0 0 0 0 0 0 0 0 0 0
0 0 0 0 0 0 0 0 0 0 0 0 0 0 0 0 0 0 0 0 0 0 0 0 0 0 0 0 0 0 0 0 0 0 0 0 0 0 0 0 0 0 0 0 0
0 0 0 0 0 0 0 0 0 0 0 0 0 0 0 0 0 0 0 0 0 0 0 0 0 0 0 0 0 0 0 0 0 0 0 0 0 0 0 0 0 0 0 0 0
0 0 0 0 0 0 0 0 0 0 0 0 0 0 0 0 0 0 0 0 0 0 0 0 0 0 0 0 0 0 0 0 0 0 0 0 0 0 0 0 0 0 0 0 0
Wind_Speed_500mb
23 24 24 30 31 33 34 33 32 35 41 43 38 12 2 31 62 73 95 69 55 39 26 25 6 5 16 30 25 10 9 9 6 4 7 4 4 3 6 13 7 5 3 10 12
22 23 24 27 30 28 31 36 38 37 37 45 52 22 4 6 36 74 61 64 59 38 23 13 22 15 21 21 19 15 10 7 6 5 8 6 5 4 1 5 7 2 6 10 16
17 19 18 24 28 32 29 30 36 36 36 39 45 47 6 6 17 63 61 50 57 34 36 18 37 44 42 29 23 17 11 12 13 19 12 6 8 5 7 2 3 5 7 13 17
12 12 14 19 23 28 29 27 27 30 32 39 36 36 38 11 10 45 59 48 51 51 44 33 35 22 20 21 22 19 21 12 9 9 8 7 8 2 7 3 3 4 6 12 17
9 11 11 15 21 24 32 27 26 22 26 32 34 32 15 42 22 30 44 48 47 27 45 43 38 34 26 29 47 32 20 25 26 23 22 20 10 10 6 8 8 5 4 12 18
9 9 11 11 18 22 32 30 24 17 24 30 26 26 28 26 25 33 33 43 57 51 38 33 29 43 33 15 18 19 29 25 13 9 6 7 6 2 11 12 6 4 5 11 16
12 8 7 9 15 21 32 31 26 20 19 23 24 20 39 23 23 24 25 35 49 43 51 47 18 7 17 22 30 35 18 19 10 13 6 6 3 8 16 15 12 15 12 12 14
12 9 5 6 8 17 28 27 25 25 20 20 20 13 17 23 20 17 24 28 33 30 27 27 17 35 16 29 13 6 7 4 10 6 14 13 5 18 21 18 16 14 13 13 15
14 15 12 8 7 18 28 28 21 22 22 15 14 7 9 11 16 19 21 27 20 17 24 26 14 17 6 3 3 10 8 9 4 8 4 7 6 21 29 26 21 19 20 19 20
12 13 12 8 9 18 27 26 19 11 24 8 11 8 10 9 16 21 21 21 16 13 9 18 16 11 20 14 11 12 6 4 5 9 9 7 8 15 32 33 30 26 25 26 28
10 11 10 10 13 17 17 17 14 6 24 17 12 11 5 10 10 22 21 14 15 19 10 14 22 22 23 15 8 5 6 9 5 7 11 9 18 13 31 35 35 35 36 37 37
10 12 13 15 16 17 15 8 12 4 5 11 10 10 11 12 7 23 17 9 17 12 10 6 12 5 13 13 12 9 8 11 10 6 11 13 35 27 31 45 47 43 43 43 39
7 9 12 14 14 12 17 16 13 13 4 8 9 7 8 11 10 20 20 10 14 10 20 11 6 2 2 13 20 11 10 11 10 19 4 27 11 7 18 38 36 49 45 44 48
9 10 11 11 5 11 11 14 17 18 3 4 6 7 8 6 4 16 13 8 8 6 5 10 2 2 4 6 7 11 12 18 20 23 6 16 7 8 15 24 42 53 55 56 54
11 10 10 10 8 8 6 10 16 8 6 3 3 3 7 4 3 5 13 7 6 7 5 4 3 1 3 3 4 4 8 10 15 12 10 7 4 3 2 17 41 56 65 64 61
12 12 11 8 6 7 8 11 10 10 8 2 3 6 5 4 4 7 4 6 11 4 8 7 4 0 2 3 4 6 11 8 4 5 4 8 10 8 10 11 7 35 57 63 63
15 13 10 7 6 6 6 9 9 7 4 3 1 4 2 4 3 6 4 4 5 3 1 7 5 4 2 5 6 4 7 6 5 3 5 4 10 21 15 15 11 9 37 52 60
15 14 12 8 4 3 2 7 4 2 11 3 2 2 5 3 1 7 6 7 6 1 3 3 5 8 3 3 2 5 2 3 10 9 15 4 12 5 6 9 16 28 22 28 55
17 16 16 10 7 6 3 6 12 11 3 11 4 2 3 1 2 3 6 7 6 20 8 7 7 5 3 4 5 6 3 6 9 3 6 5 13 29 5 25 32 33 23 38 46
21 22 31 19 14 13 7 10 9 9 12 3 6 9 8 5 2 3 3 6 5 9 4 2 7 3 3 3 6 5 11 3 2 8 11 11 10 16 10 10 4 14 39 36 46
27 9 17 14 18 14 7 14 10 16 18 10 10 7 9 7 10 8 6 6 6 10 6 5 3 5 4 19 16 10 7 3 5 5 10 12 7 16 19 14 9 11 20 33 41
23 7 16 20 10 5 6 12 8 11 22 10 7 12 13 12 12 11 16 15 15 20 14 11 7 12 15 5 5 3 7 17 9 11 9 9 23 14 20 10 15 20 19 18 27
21 25 27 38 8 8 6 7 11 14 16 15 13 14 10 14 8 15 9 6 20 18 10 10 7 10 9 2 4 11 12 10 6 1 18 14 24 10 7 16 32 37 30 42 59
16 3 10 30 7 4 8 7 9 16 4 5 2 6 5 9 10 9 12 5 11 12 8 15 6 15 38 33 7 14 17 24 19 12 29 38 81 19 30 25 33 49 63 83 87
15 5 12 5 7 6 6 6 3 2 2 3 6 2 5 6 5 11 7 8 5 7 3 5 30 17 40 25 14 42 41 28 35 40 36 73 67 22 36 35 57 65 67 68 90
13 9 9 9 8 10 8 3 5 9 4 4 3 8 11 4 5 7 11 6 9 5 5 0 14 5 50 6 16 43 42 39 49 52 51 67 84 42 74 83 80 72 63 66 86
18 20 12 15 9 7 10 8 10 10 4 10 8 4 12 25 27 38 35 38 42 18 10 8 4 3 36 5 9 37 45 44 51 50 44 53 66 47 54 63 80 58 60 79 78
Wind_Direction_500mb
76 72 70 58 49 45 43 36 33 29 23 19 11 302 270 43 41 43 32 9 6 8 3 12 45 228 54 66 53 83 93 83 68 90 131 159 175 82 82 104 70 54 181 167 138
73 73 81 47 41 40 39 38 33 28 27 24 18 24 193 315 15 35 17 16 13 17 23 51 71 102 63 35 32 43 65 69 8 71 131 98 115 109 125 138 90 102 90 161 166
75 74 60 43 38 37 34 34 28 27 26 22 25 24 352 304 6 10 13 18 25 24 40 81 79 79 60 46 23 37 86 127 73 106 123 120 69 52 145 90 167 154 148 151 159
60 55 41 40 34 31 26 19 14 23 31 36 24 27 37 49 53 27 28 24 31 45 57 66 64 63 73 53 49 98 77 96 114 112 109 63 84 80 52 221 160 170 172 147 157
50 45 39 35 32 26 16 12 7 13 17 17 22 23 21 62 60 27 22 25 33 23 56 67 63 64 86 100 75 77 90 83 96 98 104 129 142 159 166 118 75 75 210 202 169
33 36 36 34 21 18 10 7 3 10 11 11 13 28 49 68 36 27 24 25 31 34 50 60 81 92 81 75 67 130 120 132 109 108 135 131 193 306 180 147 138 149 207 219 212
31 18 6 10 6 9 9 11 19 16 9 8 11 20 50 66 39 23 12 14 20 33 50 54 39 65 111 106 122 135 107 128 153 166 152 141 142 249 172 174 197 205 199 198 210
19 21 4 345 360 8 6 5 6 4 360 6 8 30 83 47 36 26 10 360 5 17 39 42 44 65 59 117 134 199 194 144 65 130 165 207 144 188 184 191 206 213 204 194 201
18 12 4 5 13 1 356 350 345 358 357 357 18 65 68 35 25 14 14 16 14 12 20 17 38 69 47 284 130 35 79 45 136 43 302 259 138 176 187 193 201 204 210 215 211
27 18 14 11 350 346 343 340 335 343 2 28 32 82 46 15 16 8 349 352 4 20 27 31 35 60 36 360 30 356 30 21 22 357 322 295 265 185 193 202 208 204 205 206 214
17 10 6 348 340 344 357 350 356 351 20 55 37 79 37 351 9 5 14 3 24 47 43 34 52 31 11 23 11 30 10 349 323 343 306 265 278 236 201 211 216 212 209 209 209
357 360 351 348 353 6 28 45 52 343 26 48 43 48 24 5 10 7 7 41 47 39 328 115 73 19 321 335 346 349 325 355 272 288 308 309 287 264 208 219 216 215 215 213 207
350 350 344 347 350 7 31 40 12 2 84 45 38 16 360 6 35 3 18 43 58 59 33 65 94 328 90 343 344 354 360 345 310 312 241 313 256 218 217 222 222 226 224 221 214
340 348 347 348 4 6 29 15 353 355 69 48 14 350 342 340 28 19 23 47 55 102 76 73 90 12 359 69 16 329 356 320 319 330 328 1 299 250 210 227 224 227 225 224 218
325 339 348 2 348 9 10 360 342 360 352 39 320 305 349 28 308 359 24 49 94 115 209 85 147 55 56 56 326 265 323 316 317 321 302 16 270 216 259 244 234 225 224 223 218
311 327 345 357 355 356 354 343 338 45 262 347 309 333 318 26 359 324 359 70 122 124 57 93 136 269 71 158 187 299 285 270 282 306 276 357 344 273 201 221 251 220 221 220 217
307 312 327 337 326 338 351 342 27 143 359 256 201 359 347 333 359 7 343 226 228 288 227 157 154 131 218 218 181 259 299 330 323 329 306 21 291 262 275 246 252 242 223 220 220
344 330 312 311 303 303 12 56 136 270 225 54 68 296 248 39 125 326 301 276 240 183 163 250 261 180 167 332 76 42 52 151 296 315 309 61 245 257 278 304 261 259 242 226 221
317 320 322 303 250 210 181 86 216 208 126 153 136 193 284 140 281 329 228 270 237 196 213 187 237 105 22 58 321 133 215 69 102 98 266 233 268 280 266 258 254 252 245 235 228
295 304 293 266 222 191 90 233 229 191 142 142 215 200 227 201 191 173 211 184 213 207 335 291 270 26 83 145 74 248 144 145 136 276 282 231 240 245 277 261 217 248 237 242 240
266 280 263 229 184 175 184 223 235 222 184 178 208 232 230 245 208 211 245 228 184 155 141 142 250 117 181 205 189 157 194 221 323 232 244 299 240 222 231 255 238 266 247 242 254
229 213 224 185 142 172 188 196 206 192 209 227 208 211 204 186 209 236 230 231 180 160 169 186 194 250 249 85 359 299 204 178 218 209 257 303 256 210 219 247 225 261 255 282 291
209 211 196 187 178 208 233 253 243 174 198 188 225 216 185 190 276 201 201 252 202 180 180 178 205 292 257 160 349 221 201 203 94 23 208 251 263 42 302 237 253 260 260 289 291
198 160 169 196 214 176 163 203 233 225 296 239 337 133 105 218 247 270 218 234 199 206 180 160 195 233 259 271 104 236 196 209 202 221 263 234 269 233 265 264 267 274 283 289 284
189 168 164 185 254 160 86 69 38 30 25 35 61 76 38 286 253 261 292 304 234 248 126 244 261 234 261 284 286 279 268 208 208 231 240 268 262 264 255 265 269 271 270 276 282
144 149 135 137 123 116 177 211 198 317 61 353 325 357 10 265 265 295 335 298 263 57 189 91 275 344 286 255 257 275 272 258 235 244 253 260 267 278 283 284 280 276 278 272 280
171 137 133 154 134 155 173 172 154 160 162 209 180 230 255 256 262 279 269 260 261 274 236 200 222 204 266 95 308 271 266 255 251 243 240 251 260 282 276 272 273 288 272 273 280
Wind_Speed_850mb
23 24 24 30 31 33 34 33 32 35 41 43 38 12 2 31 62 73 95 69 55 39 26 25 6 5 16 30 25 10 9 9 6 4 7 4 4 3 6 13 7 5 3 10 12
22 23 24 27 30 28 31 36 38 37 37 45 52 22 4 6 36 74 61 64 59 38 23 13 22 15 21 21 19 15 10 7 6 5 8 6 5 4 1 5 7 2 6 10 16
17 19 18 24 28 32 29 30 36 36 36 39 45 47 6 6 17 63 61 50 57 34 36 18 37 44 42 29 23 17 11 12 13 19 12 6 8 5 7 2 3 5 7 13 17
12 12 14 19 23 28 29 27 27 30 32 39 36 36 38 11 10 45 59 48 51 51 44 33 35 22 20 21 22 19 21 12 9 9 8 7 8 2 7 3 3 4 6 12 17
9 11 11 15 21 24 32 27 26 22 26 32 34 32 15 42 22 30 44 48 47 27 45 43 38 34 26 29 47 32 20 25 26 23 22 20 10 10 6 8 8 5 4 12 18
9 9 11 11 18 22 32 30 24 17 24 30 26 26 28 26 25 33 33 43 57 51 38 33 29 43 33 15 18 19 29 25 13 9 6 7 6 2 11 12 6 4 5 11 16
12 8 7 9 15 21 32 31 26 20 19 23 24 20 39 23 23 24 25 35 49 43 51 47 18 7 17 22 30 35 18 19 10 13 6 6 3 8 16 15 12 15 12 12 14
12 9 5 6 8 17 28 27 25 25 20 20 20 13 17 23 20 17 24 28 33 30 27 27 17 35 16 29 13 6 7 4 10 6 14 13 5 18 21 18 16 14 13 13 15
14 15 12 8 7 18 28 28 21 22 22 15 14 7 9 11 16 19 21 27 20 17 24 26 14 17 6 3 3 10 8 9 4 8 4 7 6 21 29 26 21 19 20 19 20
12 13 12 8 9 18 27 26 19 11 24 8 11 8 10 9 16 21 21 21 16 13 9 18 16 11 20 14 11 12 6 4 5 9 9 7 8 15 32 33 30 26 25 26 28
10 11 10 10 13 17 17 17 14 6 24 17 12 11 5 10 10 22 21 14 15 19 10 14 22 22 23 15 8 5 6 9 5 7 11 9 18 13 31 35 35 35 36 37 37
10 12 13 15 16 17 15 8 12 4 5 11 10 10 11 12 7 23 17 9 17 12 10 6 12 5 13 13 12 9 8 11 10 6 11 13 35 27 31 45 47 43 43 43 39
7 9 12 14 14 12 17 16 13 13 4 8 9 7 8 11 10 20 20 10 14 10 20 11 6 2 2 13 20 11 10 11 10 19 4 27 11 7 18 38 36 49 45 44 48
9 10 11 11 5 11 11 14 17 18 3 4 6 7 8 6 4 16 13 8 8 6 5 10 2 2 4 6 7 11 12 18 20 23 6 16 7 8 15 24 42 53 55 56 54
11 10 10 10 8 8 6 10 16 8 6 3 3 3 7 4 3 5 13 7 6 7 5 4 3 1 3 3 4 4 8 10 15 12 10 7 4 3 2 17 41 56 65 64 61
12 12 11 8 6 7 8 11 10 10 8 2 3 6 5 4 4 7 4 6 11 4 8 7 4 0 2 3 4 6 11 8 4 5 4 8 10 8 10 11 7 35 57 63 63
15 13 10 7 6 6 6 9 9 7 4 3 1 4 2 4 3 6 4 4 5 3 1 7 5 4 2 5 6 4 7 6 5 3 5 4 10 21 15 15 11 9 37 52 60
15 14 12 8 4 3 2 7 4 2 11 3 2 2 5 3 1 7 6 7 6 1 3 3 5 8 3 3 2 5 2 3 10 9 15 4 12 5 6 9 16 28 22 28 55
17 16 16 10 7 6 3 6 12 11 3 11 4 2 3 1 2 3 6 7 6 20 8 7 7 5 3 4 5 6 3 6 9 3 6 5 13 29 5 25 32 33 23 38 46
21 22 31 19 14 13 7 10 9 9 12 3 6 9 8 5 2 3 3 6 5 9 4 2 7 3 3 3 6 5 11 3 2 8 11 11 10 16 10 10 4 14 39 36 46
27 9 17 14 18 14 7 14 10 16 18 10 10 7 9 7 10 8 6 6 6 10 6 5 3 5 4 19 16 10 7 3 5 5 10 12 7 16 19 14 9 11 20 33 41
23 7 16 20 10 5 6 12 8 11 22 10 7 12 13 12 12 11 16 15 15 20 14 11 7 12 15 5 5 3 7 17 9 11 9 9 23 14 20 10 15 20 19 18 27
21 25 27 38 8 8 6 7 11 14 16 15 13 14 10 14 8 15 9 6 20 18 10 10 7 10 9 2 4 11 12 10 6 1 18 14 24 10 7 16 32 37 30 42 59
16 3 10 30 7 4 8 7 9 16 4 5 2 6 5 9 10 9 12 5 11 12 8 15 6 15 38 33 7 14 17 24 19 12 29 38 81 19 30 25 33 49 63 83 87
15 5 12 5 7 6 6 6 3 2 2 3 6 2 5 6 5 11 7 8 5 7 3 5 30 17 40 25 14 42 41 28 35 40 36 73 67 22 36 35 57 65 67 68 90
13 9 9 9 8 10 8 3 5 9 4 4 3 8 11 4 5 7 11 6 9 5 5 0 14 5 50 6 16 43 42 39 49 52 51 67 84 42 74 83 80 72 63 66 86
18 20 12 15 9 7 10 8 10 10 4 10 8 4 12 25 27 38 35 38 42 18 10 8 4 3 36 5 9 37 45 44 51 50 44 53 66 47 54 63 80 58 60 79 78
Wind_Direction_850mb
76 72 70 58 49 45 43 36 33 29 23 19 11 302 270 43 41 43 32 9 6 8 3 12 45 228 54 66 53 83 93 83 68 90 131 159 175 82 82 104 70 54 181 167 138
73 73 81 47 41 40 39 38 33 28 27 24 18 24 193 315 15 35 17 16 13 17 23 51 71 102 63 35 32 43 65 69 8 71 131 98 115 109 125 138 90 102 90 161 166
75 74 60 43 38 37 34 34 28 27 26 22 25 24 352 304 6 10 13 18 25 24 40 81 79 79 60 46 23 37 86 127 73 106 123 120 69 52 145 90 167 154 148 151 159
60 55 41 40 34 31 26 19 14 23 31 36 24 27 37 49 53 27 28 24 31 45 57 66 64 63 73 53 49 98 77 96 114 112 109 63 84 80 52 221 160 170 172 147 157
50 45 39 35 32 26 16 12 7 13 17 17 22 23 21 62 60 27 22 25 33 23 56 67 63 64 86 100 75 77 90 83 96 98 104 129 142 159 166 118 75 75 210 202 169
33 36 36 34 21 18 10 7 3 10 11 11 13 28 49 68 36 27 24 25 31 34 50 60 81 92 81 75 67 130 120 132 109 108 135 131 193 306 180 147 138 149 207 219 212
31 18 6 10 6 9 9 11 19 16 9 8 11 20 50 66 39 23 12 14 20 33 50 54 39 65 111 106 122 135 107 128 153 166 152 141 142 249 172 174 197 205 199 198 210
19 21 4 345 360 8 6 5 6 4 360 6 8 30 83 47 36 26 10 360 5 17 39 42 44 65 59 117 134 199 194 144 65 130 165 207 144 188 184 191 206 213 204 194 201
18 12 4 5 13 1 356 350 345 358 357 357 18 65 68 35 25 14 14 16 14 12 20 17 38 69 47 284 130 35 79 45 136 43 302 259 138 176 187 193 201 204 210 215 211
27 18 14 11 350 346 343 340 335 343 2 28 32 82 46 15 16 8 349 352 4 20 27 31 35 60 36 360 30 356 30 21 22 357 322 295 265 185 193 202 208 204 205 206 214
17 10 6 348 340 344 357 350 356 351 20 55 37 79 37 351 9 5 14 3 24 47 43 34 52 31 11 23 11 30 10 349 323 343 306 265 278 236 201 211 216 212 209 209 209
357 360 351 348 353 6 28 45 52 343 26 48 43 48 24 5 10 7 7 41 47 39 328 115 73 19 321 335 346 349 325 355 272 288 308 309 287 264 208 219 216 215 215 213 207
350 350 344 347 350 7 31 40 12 2 84 45 38 16 360 6 35 3 18 43 58 59 33 65 94 328 90 343 344 354 360 345 310 312 241 313 256 218 217 222 222 226 224 221 214
340 348 347 348 4 6 29 15 353 355 69 48 14 350 342 340 28 19 23 47 55 102 76 73 90 12 359 69 16 329 356 320 319 330 328 1 299 250 210 227 224 227 225 224 218
325 339 348 2 348 9 10 360 342 360 352 39 320 305 349 28 308 359 24 49 94 115 209 85 147 55 56 56 326 265 323 316 317 321 302 16 270 216 259 244 234 225 224 223 218
311 327 345 357 355 356 354 343 338 45 262 347 309 333 318 26 359 324 359 70 122 124 57 93 136 269 71 158 187 299 285 270 282 306 276 357 344 273 201 221 251 220 221 220 217
307 312 327 337 326 338 351 342 27 143 359 256 201 359 347 333 359 7 343 226 228 288 227 157 154 131 218 218 181 259 299 330 323 329 306 21 291 262 275 246 252 242 223 220 220
344 330 312 311 303 303 12 56 136 270 225 54 68 296 248 39 125 326 301 276 240 183 163 250 261 180 167 332 76 42 52 151 296 315 309 61 245 257 278 304 261 259 242 226 221
317 320 322 303 250 210 181 86 216 208 126 153 136 193 284 140 281 329 228 270 237 196 213 187 237 105 22 58 321 133 215 69 102 98 266 233 268 280 266 258 254 252 245 235 228
295 304 293 266 222 191 90 233 229 191 142 142 215 200 227 201 191 173 211 184 213 207 335 291 270 26 83 145 74 248 144 145 136 276 282 231 240 245 277 261 217 248 237 242 240
266 280 263 229 184 175 184 223 235 222 184 178 208 232 230 245 208 211 245 228 184 155 141 142 250 117 181 205 189 157 194 221 323 232 244 299 240 222 231 255 238 266 247 242 254
229 213 224 185 142 172 188 196 206 192 209 227 208 211 204 186 209 236 230 231 180 160 169 186 194 250 249 85 359 299 204 178 218 209 257 303 256 210 219 247 225 261 255 282 291
209 211 196 187 178 208 233 253 243 174 198 188 225 216 185 190 276 201 201 252 202 180 180 178 205 292 257 160 349 221 201 203 94 23 208 251 263 42 302 237 253 260 260 289 291
198 160 169 196 214 176 163 203 233 225 296 239 337 133 105 218 247 270 218 234 199 206 180 160 195 233 259 271 104 236 196 209 202 221 263 234 269 233 265 264 267 274 283 289 284
189 168 164 185 254 160 86 69 38 30 25 35 61 76 38 286 253 261 292 304 234 248 126 244 261 234 261 284 286 279 268 208 208 231 240 268 262 264 255 265 269 271 270 276 282
144 149 135 137 123 116 177 211 198 317 61 353 325 357 10 265 265 295 335 298 263 57 189 91 275 344 286 255 257 275 272 258 235 244 253 260 267 278 283 284 280 276 278 272 280
171 137 133 154 134 155 173 172 154 160 162 209 180 230 255 256 262 279 269 260 261 274 236 200 222 204 266 95 308 271 266 255 251 243 240 251 260 282 276 272 273 288 272 273 280